Regional Weather Roundup
Issued by NWS

Home | Current Version | Previous Version | Text Only | Print | Product List | Glossary Off
Versions: 1 2 3 4 5 6 7 8 9 10 11 12 13 14 15 16 17 18 19 20 21 22 23 24 25 26 27 28 29 30 31 32 33 34 35 36 37 38 39 40 41 42 43 44 45 46 47 48 49 50

000
ASUS43 KTOP 070159
RWRKS

WEATHER ROUNDUP FOR KANSAS
NATIONAL WEATHER SERVICE GOODLAND KS
900 PM CDT WED MAY 06 2015

NOTE:  "FAIR" INDICATES FEW OR NO CLOUDS BELOW 12,000 FEET WITH NO
SIGNIFICANT WEATHER AND/OR OBSTRUCTIONS TO VISIBILITY.

KSZ001>006-013>018-027>032-041>047-070300-
NORTHWEST KANSAS

CITY           SKY/WX    TMP DP  RH WIND       PRES   REMARKS
GOODLAND       PTCLDY    63  54  72 SW9       29.66R
HAYS           PTCLDY    68  54  60 S8        29.60S
HILL CITY      MOCLDY    62  56  80 CALM      29.58S
RUSSELL        MOCLDY    71  65  81 S30G39    29.60R
$$

KSZ061>065-074>080-084>089-070300-
SOUTHWEST KANSAS

CITY           SKY/WX    TMP DP  RH WIND       PRES   REMARKS
DODGE CITY     MOCLDY    68  53  58 S10       29.64R
ELKHART          N/A     71  44  37 SW13        N/A
GARDEN CITY    CLOUDY    67  52  58 S12       29.61R
GREAT BEND     MOCLDY    70  63  78 S29G35    29.63S
LIBERAL        PTCLDY    70  50  49 S13       29.67R
$$

KSZ066>073-081>083-090>101-070300-
SOUTHEAST KANSAS

CITY           SKY/WX    TMP DP  RH WIND       PRES   REMARKS
CHANUTE        CLOUDY    71  58  63 SE16G24   29.83R
COFFEYVILLE    MOCLDY    71  58  63 SE16      29.83S
HUTCHINSON     MOCLDY    70  64  81 S26G35    29.70R
MEDICINE LODGE   N/A     69  66  90 SE13G21   29.72R
NEWTON         CLOUDY    70  61  73 S13G21    29.77R
PARSONS        CLOUDY    71  59  65 SE9G18    29.84S
WICHITA INTL   CLOUDY    71  65  81 S35G44    29.72R THUNDER
WICHITA JABRA  CLOUDY    71  64  78 S28G39    29.71S
WINFIELD       CLOUDY    71  65  81 SE16G25   29.78R
$$

KSZ007>012-019>026-033>040-048>060-102>105-070300-
NORTHEAST KANSAS

CITY           SKY/WX    TMP DP  RH WIND       PRES   REMARKS
CONCORDIA      CLOUDY    67  64  90 S23G33    29.64S
EMPORIA        CLOUDY    70  61  73 SE21G28   29.79R
LAWRENCE       MOCLDY    71  59  65 SE14      29.82R
MANHATTAN      MOCLDY    72  64  76 S24G35    29.72R
OLATHE IND     PTCLDY    71  56  58 SE15      29.86R
OLATHE EXE     PTCLDY    70  58  65 SE12      29.85R
SALINA         CLOUDY    71  64  78 S26G35    29.67R
TOPEKA BILLARD PTCLDY    72  57  59 SE21G26   29.78S
TOPEKA FORBES  MOCLDY    73  56  54 SE22G31   29.77S
$$


USA.gov is the U.S. government's official web portal to all federal, state and local government web resources and services.